FW5661 Weather Reports


Display with metric or nautical units.
time (UTC)temp
F
wind
direction
speed
MPH
gust
MPH
rain 1hr
in
rain 24hr
in
rain mn
in
humidity
%
barometer
mb
20260506123043 52 287 3.0 5.0 0.00 0.00 0.00 88 1019.5
20260506121541 52 0 0.0 0.0 0.00 0.00 0.00 88 1019.4
20260506120101 52 0 0.0 2.0 0.00 0.00 0.00 88 1019.4
20260506114546 52 22 2.0 4.0 0.00 0.00 0.00 88 1019.3
20260506113052 52 19 2.0 7.0 0.00 0.00 0.00 88 1019.3
20260506111542 52 0 0.0 0.0 0.00 0.00 0.00 86 1018.9
20260506110057 52 0 0.0 3.0 0.00 0.00 0.00 87 1018.7
20260506104552 53 256 3.0 5.0 0.00 0.00 0.00 87 1018.6
20260506103053 52 259 0.0 3.0 0.00 0.00 0.00 88 1018.6
20260506101555 52 259 2.0 4.0 0.00 0.00 0.00 88 1018.6
20260506100105 52 260 3.0 4.0 0.00 0.00 0.00 87 1018.4
20260506094544 53 257 2.0 3.0 0.00 0.00 0.00 87 1018.2
20260506093049 53 252 2.0 4.0 0.00 0.00 0.00 87 1018.3
20260506091546 53 258 2.0 4.0 0.00 0.00 0.00 87 1018.3
20260506090046 53 269 1.0 4.0 0.00 0.00 0.00 86 1018.6
20260506084604 54 275 2.0 3.0 0.00 0.00 0.00 86 1018.7
20260506083048 54 1 1.0 4.0 0.00 0.00 0.00 85 1018.8
20260506081552 55 11 2.0 5.0 0.00 0.00 0.00 84 1018.7
20260506073047 56 6 1.0 4.0 0.00 0.00 0.00 82 1018.4
20260506071550 57 1 2.0 4.0 0.00 0.00 0.00 84 1018.2
20260506061542 58 0 0.0 0.0 0.00 0.00 0.00 83 1017.4
20260506044629 59 0 0.0 0.0 0.00 0.00 0.00 81 1016.7
20260506043047 59 0 0.0 0.0 0.00 0.00 0.00 80 1016.6
20260506041558 60 360 0.0 3.0 0.00 0.00 0.00 79 1016.5
20260506040047 60 360 1.0 3.0 0.00 0.00 0.00 79 1016.2
20260506034619 61 0 0.0 1.0 0.00 0.00 0.00 78 1016.2
20260506033043 61 360 1.0 4.0 0.00 0.00 0.00 77 1016.0
20260506031544 62 360 2.0 4.0 0.00 0.00 0.00 75 1015.7
20260506030045 63 360 1.0 3.0 0.00 0.00 0.00 74 1015.5
20260506024548 64 360 2.0 3.0 0.00 0.00 0.00 75 1015.3
20260506023101 64 360 2.0 3.0 0.00 0.00 0.00 73 1015.3
20260506021540 65 360 2.0 3.0 0.00 0.00 0.00 73 1015.2
20260506020047 64 360 1.0 4.0 0.00 0.00 0.00 71 1015.3
20260506014544 64 360 1.0 4.0 0.00 0.00 0.00 71 1015.2
20260506013043 64 360 3.0 6.0 0.00 0.00 0.00 70 1015.4
20260506011603 64 360 3.0 6.0 0.00 0.00 0.00 70 1015.5
20260506010056 64 360 1.0 4.0 0.00 0.00 0.00 70 1015.4
20260506004602 64 360 2.0 4.0 0.00 0.00 0.00 69 1015.4
20260506003056 64 360 2.0 4.0 0.00 0.00 0.00 69 1015.4
20260506001543 64 360 2.0 6.0 0.00 0.00 0.00 68 1015.4
20260506000047 65 360 4.0 7.0 0.00 0.00 0.00 67 1015.2
20260505234614 65 360 3.0 7.0 0.00 0.00 0.00 66 1015.1
20260505233045 65 360 4.0 8.0 0.00 0.00 0.00 68 1015.2
20260505231545 65 360 2.0 9.0 0.00 0.00 0.00 67 1015.3
20260505230050 65 360 3.0 6.0 0.00 0.00 0.00 67 1015.3
20260505224552 65 360 3.0 8.0 0.00 0.00 0.00 67 1015.4
20260505223049 65 360 2.0 8.0 0.00 0.00 0.00 66 1015.4
20260505221544 64 360 3.0 8.0 0.00 0.00 0.00 67 1015.4
20260505220057 64 360 4.0 8.0 0.00 0.00 0.00 67 1015.5
20260505214541 63 360 4.0 7.0 0.00 0.00 0.00 69 1015.7
20260505213052 63 360 4.0 8.0 0.00 0.00 0.00 68 1015.8
20260505211551 64 360 6.0 9.0 0.00 0.00 0.00 65 1015.8
20260505210045 64 360 7.0 10.0 0.00 0.00 0.00 67 1015.7
20260505204552 63 360 3.0 7.0 0.00 0.00 0.00 68 1015.7
20260505203042 63 360 4.0 7.0 0.00 0.00 0.00 65 1015.8
20260505201547 62 0 0.0 5.0 0.00 0.00 0.00 67 1015.8
20260505200045 62 360 4.0 6.0 0.00 0.00 0.00 67 1015.8
20260505194547 62 360 3.0 7.0 0.00 0.00 0.00 65 1015.8
20260505193047 62 360 2.0 6.0 0.00 0.00 0.00 66 1015.9
20260505191552 62 360 1.0 4.0 0.00 0.00 0.00 65 1015.9
20260505190045 62 360 1.0 6.0 0.00 0.00 0.00 65 1015.9
20260505184545 63 0 1.0 4.0 0.00 0.00 0.00 65 1015.7
20260505183045 60 0 0.0 3.0 0.00 0.00 0.00 72 1015.8
20260505181546 60 360 1.0 6.0 0.00 0.00 0.00 72 1015.6
20260505180058 59 360 2.0 4.0 0.00 0.00 0.00 75 1015.7
20260505174606 59 291 3.0 5.0 0.00 0.00 0.00 77 1015.6
20260505173046 58 0 1.0 5.0 0.00 0.00 0.00 77 1015.6
20260505171554 57 43 2.0 4.0 0.00 0.00 0.00 79 1015.5
20260505170126 57 43 1.0 4.0 0.00 0.00 0.00 79 1015.6
20260505164549 57 43 1.0 4.0 0.00 0.00 0.00 80 1015.5
20260505163046 57 43 3.0 5.0 0.00 0.00 0.00 80 1015.5
20260505161556 57 1 0.0 3.0 0.00 0.00 0.00 81 1015.4
20260505153055 56 28 2.0 4.0 0.00 0.00 0.00 83 1015.1
20260505151549 56 0 0.0 0.0 0.00 0.00 0.00 85 1014.8
20260505124546 54 0 0.0 0.0 0.00 0.00 0.00 88 1014.1